Location: Arbon
(43.0005°N, 0.7472°E)
Time: 22:18:55
(UTC+00:00)

Explorer 7 - Pass Details

Date: 04 December 2020
Orbit: 484 x 678 km, 50.3° (Epoch: 25 January)

Event Time Altitude Azimuth Distance (km) Brightness Sun altitude
Rises 03:17:10 0° 292° (WNW) 2,897 - -42.1°
Reaches altitude 10° 03:19:45 10° 302° (WNW) 1,956 - -41.7°
Maximum altitude 03:23:46 32° 6° (N) 1,004 - -40.9°
Drops below altitude 10° 03:27:35 10° 71° (ENE) 1,841 - -40.2°
Exits shadow 03:28:16 - 75° (ENE) 2,083 10.5 -40.1°
Sets 03:29:56 0° 82° (E) 2,699 11.2 -39.8°
